Flag Weather past 2 weeks in Amersfoort, Netherlands

Now
59 °F

Fog.


Feels Like: 59 °F
Forecast: 52 / 62 °F
Wind: 5 mph from Southeast

Location: Deelen

Current Time: Oct 31, 2014 at 6:27:16 PM

Latest Report: Oct 31, 2014 at 5:55 PM


Visibility: 6 mi

Pressure: 30.12 "Hg

Humidity: 88%

Dew point: 55 °F

Location of AmersfoortLocation

Historic Weather in Amersfoort — Graph

°F

Amersfoort temperature yesterday

Maximum temperature yesterday: 57 °F (at 1:55 PM)
Minimum temperature yesterday: 52 °F (at 12:25 AM)
Average temperature yesterday: 54 °F

Past Weeks' High & Low Weather Summary

 TemperatureHumidityPressure
High72 °F (Oct 18, 3:55 PM)100% (Oct 16, 10:55 PM)30.24 "Hg (Oct 16, 10:55 PM)
Low43 °F (Oct 23, 12:25 AM)63% (Oct 27, 1:25 PM)29.45 "Hg (Oct 21, 2:25 PM)
Average54 °F90%30.03 "Hg
* Reported Oct 16 6:25 PM — Oct 31 5:25 PM, Amersfoort, Weather by CustomWeather, © 2014

Note: Actual official high and low records may vary slightly from our data, if they occured in-between our weather recording intervals... More about our weather records

Advertising

Amersfoort weather history for previous 24 hours

 ConditionsComfort  
Time TempWeatherWind HumidityBarometerVisibility
5:25 PM
Oct 31
59 °FPassing clouds.5 mph88%30.12 "HgN/A
4:55 PM61 °FScattered clouds.3 mph83%30.15 "HgN/A
4:25 PM61 °FOvercast.5 mph83%30.15 "HgN/A
3:55 PM61 °FPartly sunny.3 mph83%30.15 "HgN/A
3:25 PM61 °FCool.5 mph83%30.15 "HgN/A
2:55 PM61 °FPassing clouds.6 mph83%30.15 "HgN/A
2:25 PM63 °FPartly sunny.7 mph77%30.15 "HgN/A
1:55 PM61 °FPartly sunny.7 mph83%30.15 "HgN/A
1:25 PM61 °FPassing clouds.9 mph83%30.15 "HgN/A
12:55 PM61 °FPassing clouds.9 mph83%30.15 "HgN/A
12:25 PM61 °FScattered clouds.8 mph77%30.18 "HgN/A
11:55 AM59 °FPartly sunny.7 mph82%30.18 "HgN/A
11:25 AM59 °FPassing clouds.8 mph82%30.18 "HgN/A
10:55 AM57 °FScattered clouds.8 mph88%30.18 "HgN/A
10:25 AM57 °FOvercast.7 mph88%30.18 "HgN/A
9:55 AM57 °FOvercast.8 mph88%30.18 "HgN/A
9:25 AM55 °FCloudy.8 mph94%30.18 "HgN/A
8:55 AM54 °FOvercast.8 mph94%30.18 "HgN/A
8:25 AM52 °FFog.6 mph100%30.15 "Hg6 mi
7:55 AM52 °FFog.7 mph100%30.15 "Hg5 mi
7:25 AM52 °FFog.5 mph100%30.15 "Hg4 mi
6:55 AM52 °FFog.3 mph100%30.15 "Hg4 mi
6:25 AM52 °FFog.5 mph100%30.15 "Hg4 mi
5:55 AM52 °FFog.6 mph100%30.15 "Hg4 mi
5:25 AM54 °FFog.6 mph94%30.15 "Hg4 mi
4:55 AM52 °FFog.6 mph100%30.15 "Hg4 mi
4:25 AM54 °FFog.8 mph94%30.15 "Hg4 mi
3:55 AM54 °FFog.8 mph94%30.15 "Hg4 mi
3:25 AM54 °FFog.8 mph94%30.15 "Hg3 mi
2:55 AM52 °FFog.7 mph100%30.15 "Hg3 mi
2:25 AM54 °FFog.7 mph100%30.15 "Hg3 mi
1:55 AM54 °FFog.7 mph100%30.15 "Hg3 mi
1:25 AM54 °FFog.5 mph100%30.18 "Hg2 mi
12:55 AM54 °FFog.3 mph100%30.18 "Hg1 mi
12:25 AM54 °FFog.5 mph100%30.18 "Hg1 mi
11:55 PM
Oct 30
55 °FFog.7 mph94%30.18 "Hg2 mi
11:25 PM54 °FFog.3 mph100%30.18 "Hg1 mi
10:55 PM55 °FFog.3 mph100%30.18 "Hg1 mi
10:25 PM55 °FFog.6 mph100%30.18 "Hg2 mi
9:55 PM57 °FFog.5 mph94%30.18 "Hg2 mi
9:25 PM57 °FFog.7 mph94%30.18 "Hg2 mi
8:55 PM57 °FFog.6 mph94%30.18 "Hg2 mi
8:25 PM57 °FFog.6 mph100%30.18 "Hg2 mi
7:55 PM57 °FFog.6 mph100%30.18 "Hg2 mi
7:25 PM57 °FFog.6 mph100%30.18 "Hg1 mi
6:55 PM57 °FFog.6 mph100%30.18 "Hg2 mi
6:25 PM57 °FFog.6 mph100%30.18 "Hg1 mi
Weather by CustomWeather, © 2014

See weather overviewHow to use our weather pages